CZ-6A DEB, 55516

Orbit data source: Space-Track

CZ-6A DEB, 55516 is space debris in SSO originally from a launch on Fri, 11 Nov 2022 UTC launched from the Taiyaun Space Center, China (TSC). Debris objects in space refer to the collection of defunct objects orbiting the Earth. Examples of debris include non-operational satellites, rocket bodies, and fragments generated from explosions, collisions, or faulty payload assembly.

Loading next visibility...
Identifier
55516, 2022-151XN
Orbit
SSO
Country
Flag of CNCN / PRC
Related business
Manufacturer
SAST
Mission
Spacecraft
Bus & Motor
Unknown
Mass
Unknown
Launch date (UTC)
2022-11-11 (4 years ago)
Launch vehicle
Unknown
Launch site
Taiyaun Space Center, China (TSC)
Object type
Payload
Rocket body
Debris
Shape & HBR
Unknown shape, 0.1 m
Radar Cross Section
Small (<0.1 m²)

Expand to show TLE details & history
Last TLE update: 2 days ago

TLE from 2 days ago
0 CZ-6A DEB
1 55516U 22151XN  26171.48117490  .00060687  00000-0  37751-2 0  9996
2 55516  98.5858 254.4197 0033691 195.7631 164.2548 15.08896075186995
Epoch: 2026-06-20T11:32Z
TLE epoch observation values (Epoch: 2026-06-20T11:32:53.511Z)
Latitude
-0.0001°
Longitude
172.50157°
Altitude
565.054 km
Speed
7.566 km/s
True Right ascension
16h 57m 40s
True Declination
0° 00' 00"
Sunlit
Object was in full shadow at epoch
Visualization orbit readout
Latitude
Unknown
Longitude
Unknown
Altitude
Unknown
Speed
Unknown
Apparent Right ascension
Unknown
Apparent Declination
Unknown
Sunlit
N/A
Visualization observer readout
Local Sidereal Time
21:42:35
Azimuth
Unknown
Elevation
Unknown
Doppler factor
Unknown
Orbital elements
Apogee altitude
559.903 km
Perigee altitude
513.31 km
Semi-major axis
6,914.744 km
Eccentricity
0.00337
Inclination
98.5858°
RAAN
254.4197°
Arg. of periapsis
195.7631°
True anomaly
164.35914°
Mean anomaly
164.2548°
Eccentric anomaly
164.30701°
Mean motion
3.77467 °/min
Orbital period
95.37 mins
BSTAR
0.0037751
Loading maneuver chart data...
Computing Atmospheric mass density...
Loading historical data...
Loading historical data...
Loading historical data...
Loading historical data...
Loading historical data...
Loading historical data...
Loading historical data...

Documentation

Showing up to 5 results
|